Location: DarkSkies Observatory
(42.5924°N, 71.9747°W)
Time: 22:22:11
(UTC-04:00)

Envisat - Visible Passes

Search period start: 20 July 2018 00:00
Search period end: 30 July 2018 00:00
Orbit: 764 x 766 km, 98.2° (Epoch: 20 July)

Date Brightness Start Highest point End Pass type
(mag) Time Alt. Az. Time Alt. Az. Time Alt. Az.
20 Jul 5.5 21:09:43 10° SW 21:13:19 19° W 21:16:56 10° NW visible
22 Jul 6.0 21:38:09 10° W 21:39:12 11° W 21:40:15 10° WNW visible
23 Jul 5.3 20:57:58 10° SSW 21:02:03 24° W 21:06:09 10° NW visible
25 Jul 5.7 21:25:20 10° WSW 21:27:53 14° W 21:30:28 10° WNW visible
26 Jul 4.9 20:46:22 10° SSW 20:50:48 30° W 20:55:16 10° NW visible
28 Jul 5.6 21:13:14 10° SW 21:16:36 18° W 21:19:58 10° NW visible
29 Jul 4.5 20:34:52 10° SSW 20:39:34 38° W 20:44:18 10° NNW visible
